Location: Unspecified
(42.0334°N, 93.6656°W)
Time: 08:24:32
(UTC-05:00)

Amateur Radio Satellites - All Passes

Search period start: 01 July 2016 07:54
Search period end: 02 July 2016 07:54
Location: Unspecified, 42.0334°N, 93.6656°W

Satellite Date Start Highest point End Downlink Frequencies (MHz)
Time Altitude Azimuth
NOAA 18 01 Jul 07:55:03 08:00:37 76° 287° (WNW) 08:06:10 137.9125
ISS 01 Jul 08:06:34 08:09:41 44° 139° (SE) 08:12:50 145.825
DOVE 4 01 Jul 08:07:12 08:11:29 49° 100° (E) 08:15:59 437.250
CUTE-I 01 Jul 08:10:26 08:15:43 57° 289° (WNW) 08:20:57 437.470
PHONESAT 2.4 01 Jul 08:13:21 08:16:25 65° 176° (S) 08:19:27 2401.200-2431.200
DANDE 01 Jul 08:17:39 08:26:02 74° 97° (E) 08:33:32 436.750
Cosmos 2499 01 Jul 08:21:21 08:27:19 21° 282° (WNW) 08:33:05 435.465 / 435.565
LilacSat-2 01 Jul 08:26:45 08:29:56 24° 291° (WNW) 08:33:06 437.200
NOAA 15 01 Jul 08:29:33 08:34:01 29° 294° (WNW) 08:38:28 137.62
GONETS M04 01 Jul 08:33:38 08:36:34 12° 287° (WNW) 08:39:31
STRAND 1 01 Jul 08:36:03 08:40:27 29° 265° (W) 08:44:54 437.568
COMPASS 1 01 Jul 08:37:14 08:38:56 12° 90° (E) 08:40:37 437.405
CINEMA 3 01 Jul 08:41:20 08:45:34 35° 97° (E) 08:49:58 145.822/145.860
BRITE-PL 01 Jul 08:43:11 08:45:28 15° 296° (WNW) 08:47:46 437.365/2234.400
CANX-2 01 Jul 08:45:19 08:49:17 35° 97° (E) 08:53:11 2200.000
GOMX 1 01 Jul 09:00:39 09:03:51 21° 292° (WNW) 09:07:08 467.674
UWE-3 01 Jul 09:01:38 09:03:31 12° 89° (E) 09:05:24 435.000/436.395/437.385
SEEDS 01 Jul 09:03:14 09:07:07 34° 97° (E) 09:10:58 437.485
CUTE 1.7 + AOD 2 01 Jul 09:04:34 09:08:45 50° 99° (E) 09:12:53 437.475
CUSAT 1 01 Jul 09:12:59 09:18:53 25° 289° (WNW) 09:23:59 437.405
Cubesat XI-IV 01 Jul 09:18:29 09:21:45 16° 300° (WNW) 09:24:59 437.490
HO-68 01 Jul 09:23:19 09:30:33 72° 104° (ESE) 09:37:44 435.675
PRISM 01 Jul 09:24:03 09:28:02 44° 261° (W) 09:32:01 437.425
TIGRISAT 01 Jul 09:28:02 09:29:55 13° 61° (ENE) 09:31:49 435.000
UNISAT 6 01 Jul 09:33:27 09:36:00 15° 63° (ENE) 09:38:35 437.425
AAUSAT CUBESAT 2 01 Jul 09:33:39 09:37:37 42° 98° (E) 09:41:32 437.432
M-CUBED/EXP-1 PRIME 01 Jul 09:37:06 09:39:54 18° 100° (E) 09:42:50 437.505
NOAA 18 01 Jul 09:38:26 09:40:20 12° 305° (NW) 09:42:15 137.9125
ISS 01 Jul 09:43:20 09:46:14 29° 337° (NNW) 09:49:08 145.825
DOVE 4 01 Jul 09:46:05 09:48:52 17° 294° (WNW) 09:51:44 437.250
PHONESAT 2.4 01 Jul 09:49:55 09:52:52 44° 194° (SSW) 09:55:49 2401.200-2431.200
CUBEBUG 2 01 Jul 09:54:48 09:59:26 64° 101° (E) 10:04:08 437.445
PCSat 01 Jul 09:56:37 10:00:49 22° 45° (NE) 10:05:00 145.827
Cosmos 2491 01 Jul 10:01:13 10:04:59 13° 56° (NE) 10:08:43 435.465 / 435.565
DANDE 01 Jul 10:02:41 10:09:20 26° 292° (WNW) 10:15:25 436.750
ZACube-1 01 Jul 10:07:59 10:12:18 40° 98° (E) 10:16:37 437.345
COMPASS 1 01 Jul 10:10:44 10:14:51 56° 286° (WNW) 10:18:56 437.405
ANTELSAT 01 Jul 10:11:24 10:15:23 36° 70° (ENE) 10:19:27 437.575/2403.000
Oscar 11 01 Jul 10:12:01 10:16:13 45° 99° (E) 10:20:22 145.826/435.025
CINEMA 3 01 Jul 10:18:48 10:22:33 25° 292° (WNW) 10:26:26 145.822/145.860
CANX-2 01 Jul 10:21:41 10:24:54 21° 293° (WNW) 10:28:05 2200.000
FUNcube-1 01 Jul 10:23:43 10:28:13 56° 100° (E) 10:32:43 145.935
AUBIESAT-1 01 Jul 10:28:32 10:32:30 55° 106° (ESE) 10:36:44 437.475
BEESAT 3 01 Jul 10:34:37 10:38:15 34° 50° (NE) 10:41:52 437.485
UWE-3 01 Jul 10:35:48 10:40:24 69° 285° (WNW) 10:45:02 435.000/436.395/437.385
SEEDS 01 Jul 10:39:26 10:42:36 21° 293° (WNW) 10:45:45 437.485
CUTE 1.7 + AOD 2 01 Jul 10:41:40 10:44:10 15° 296° (WNW) 10:46:40 437.475
NANOSAT C BR1 01 Jul 10:43:14 10:45:13 13° 63° (ENE) 10:47:13 145.865
QB50P1 01 Jul 10:47:29 10:49:58 16° 64° (ENE) 10:52:27 145.935-145.965
POPSAT HIP 1 01 Jul 10:50:49 10:53:28 17° 64° (ENE) 10:56:07 437.405
HUMSAT D 01 Jul 10:54:37 10:58:24 29° 95° (E) 11:02:08 437.325/437.525
DELFI C3 01 Jul 10:54:50 10:58:47 62° 101° (E) 11:02:42 145.870
DUCHIFAT 1 01 Jul 11:01:09 11:04:06 19° 66° (ENE) 11:07:05 145.980
TIGRISAT 01 Jul 11:01:43 11:06:00 67° 258° (WSW) 11:10:26 435.000
QB50P2 01 Jul 11:03:07 11:06:28 24° 67° (ENE) 11:09:51 145.880/145.840
POLYITAN 1 01 Jul 11:05:43 11:09:06 24° 67° (ENE) 11:12:30 437.675
RS-15 01 Jul 11:06:35 11:16:55 43° 108° (ESE) 11:27:46 29.354- 29.394
UNISAT 6 01 Jul 11:08:01 11:12:15 53° 260° (W) 11:16:36 437.425
JAS-2 01 Jul 11:08:42 11:12:25 15° 57° (ENE) 11:15:56 435.910
AAUSAT CUBESAT 2 01 Jul 11:10:04 11:12:46 17° 295° (WNW) 11:15:27 437.432
M-CUBED/EXP-1 PRIME 01 Jul 11:10:48 11:14:31 40° 293° (WNW) 11:18:30 437.505
HO-68 01 Jul 11:12:06 11:17:36 24° 303° (WNW) 11:23:06 435.675
BEESAT 2 01 Jul 11:18:29 11:22:25 53° 54° (NE) 11:26:19 435.950
ISS 01 Jul 11:21:25 11:23:27 15° 357° (N) 11:25:29 145.825
PHONESAT 2.4 01 Jul 11:27:23 11:29:02 14° 209° (SSW) 11:30:39 2401.200-2431.200
CUBEBUG 2 01 Jul 11:32:59 11:35:33 15° 297° (WNW) 11:38:08 437.445
ESTCUBE 1 01 Jul 11:36:10 11:38:41 15° 91° (E) 11:41:09 437.505/2401.250
PCSat 01 Jul 11:39:18 11:44:42 65° 244° (WSW) 11:50:02 145.827
YUBILEINY 01 Jul 11:42:09 11:48:21 22° 79° (E) 11:54:35 435.215
BUGSAT 1 01 Jul 11:43:42 11:46:57 24° 68° (ENE) 11:50:12 437.445
ZACube-1 01 Jul 11:44:52 11:48:18 21° 294° (WNW) 11:51:46 437.345
ANTELSAT 01 Jul 11:48:59 11:52:13 20° 267° (W) 11:55:31 437.575/2403.000
Oscar 11 01 Jul 11:49:06 11:51:59 17° 295° (WNW) 11:54:51 145.826/435.025
Cosmos 2491 01 Jul 11:55:07 12:03:47 65° 79° (ENE) 12:12:26 435.465 / 435.565
FUNcube-1 01 Jul 12:01:14 12:04:01 16° 296° (WNW) 12:06:47 145.935
AUBIESAT-1 01 Jul 12:04:23 12:06:38 15° 300° (WNW) 12:08:58 437.475
CUBEBUG 1 01 Jul 12:05:28 12:08:39 20° 94° (E) 12:11:48 437.445
BEESAT 3 01 Jul 12:12:40 12:15:45 22° 247° (WSW) 12:18:49 437.485
NANOSAT C BR1 01 Jul 12:16:20 12:20:27 58° 259° (W) 12:24:36 145.865
O/OREOS (USA 219) 01 Jul 12:19:00 12:23:26 58° 65° (ENE) 12:27:51 437.305
50 SAT 01 Jul 12:20:11 12:23:18 25° 96° (E) 12:26:23 437.505
QB50P1 01 Jul 12:21:18 12:25:21 48° 260° (W) 12:29:26 145.935-145.965
VELOX 1 01 Jul 12:21:31 12:25:14 26° 96° (E) 12:28:56 145.980
POPSAT HIP 1 01 Jul 12:24:53 12:28:53 44° 261° (W) 12:32:56 437.405
AIST 2 01 Jul 12:27:12 12:30:17 20° 44° (NE) 12:33:22 435.215
HUMSAT D 01 Jul 12:30:20 12:33:55 26° 292° (WNW) 12:37:28 437.325/437.525
DELFI C3 01 Jul 12:31:49 12:33:07 11° 297° (WNW) 12:34:24 145.870
DUCHIFAT 1 01 Jul 12:35:41 12:39:32 37° 262° (W) 12:43:27 145.980
QB50P2 01 Jul 12:38:27 12:42:08 30° 263° (W) 12:45:51 145.880/145.840
Oscar 19 01 Jul 12:41:06 12:44:53 21° 63° (ENE) 12:48:40 437.125/150
POLYITAN 1 01 Jul 12:41:08 12:44:46 29° 264° (W) 12:48:28 437.675
SPROUT 01 Jul 12:41:14 12:44:22 19° 93° (E) 12:47:28 437.525
UKube-1 01 Jul 12:45:25 12:49:11 29° 97° (E) 12:52:56 .
Cosmos 2504 01 Jul 12:47:19 12:52:15 17° 75° (ENE) 12:57:20 435.465 / 435.565
JAS-2 01 Jul 12:48:59 12:56:31 74° 73° (ENE) 13:03:19 435.910
BEESAT 2 01 Jul 12:57:42 12:59:49 14° 250° (WSW) 13:01:54 435.950
ISS 01 Jul 12:58:08 13:00:46 22° 17° (NNE) 13:03:24 145.825
AISAT 01 Jul 13:02:16 13:06:40 79° 102° (ESE) 13:11:05 437.250
DX 1 01 Jul 13:10:59 13:15:19 71° 103° (ESE) 13:19:38 434.975-435.025
ESTCUBE 1 01 Jul 13:11:25 13:15:48 54° 287° (WNW) 13:20:10 437.505/2401.250
RS-15 01 Jul 13:17:35 13:28:55 61° 311° (NW) 13:40:57 29.354- 29.394
BUGSAT 1 01 Jul 13:18:51 13:22:14 26° 264° (W) 13:25:38 437.445
Gurwin Techsat 1B 01 Jul 13:23:15 13:27:22 23° 64° (ENE) 13:31:30 435.225
YUBILEINY 01 Jul 13:35:24 13:44:06 78° 278° (W) 13:52:56 435.215
CUBEBUG 1 01 Jul 13:41:04 13:45:02 37° 290° (WNW) 13:49:01 437.445
TISAT 1 01 Jul 13:49:20 13:52:55 27° 96° (E) 13:56:30 437.305
Cosmos 2491 01 Jul 13:53:01 13:59:54 27° 279° (W) 14:06:46 435.465 / 435.565
50 SAT 01 Jul 13:54:03 13:56:50 21° 292° (WNW) 13:59:36 437.505
VELOX 1 01 Jul 13:57:53 14:01:39 29° 292° (WNW) 14:05:25 145.980
O/OREOS (USA 219) 01 Jul 14:00:06 14:02:18 14° 261° (W) 14:04:29 437.305
AIST 2 01 Jul 14:05:00 14:09:03 50° 242° (WSW) 14:13:03 435.215
SWISSCUBE 01 Jul 14:14:25 14:15:32 11° 89° (E) 14:16:39 437.505
SPROUT 01 Jul 14:16:28 14:20:25 37° 289° (WNW) 14:24:22 437.525
Oscar 19 01 Jul 14:18:51 14:23:50 51° 260° (W) 14:28:51 437.125/150
UKube-1 01 Jul 14:21:35 14:25:08 25° 293° (WNW) 14:28:40 .
SO-50 01 Jul 14:32:11 14:35:13 16° 109° (ESE) 14:38:13 436.795
AO-7 01 Jul 14:33:15 14:40:11 31° 56° (NE) 14:47:08 29.400- 29.500
ISS 01 Jul 14:34:15 14:37:32 82° 214° (SW) 14:40:47 145.825
Cosmos 2504 01 Jul 14:35:58 14:44:11 86° 97° (E) 14:53:00 435.465 / 435.565
JAS-2 01 Jul 14:36:26 14:41:56 22° 268° (W) 14:47:07 435.910
BEESAT 01 Jul 14:37:29 14:40:42 18° 92° (E) 14:43:54 436.000
ITUPSAT 1 01 Jul 14:40:37 14:43:59 19° 93° (E) 14:47:19 437.325
AISAT 01 Jul 14:41:16 14:42:31 11° 300° (WNW) 14:43:46 437.250
ITAMSAT 1 01 Jul 14:48:23 14:53:23 49° 70° (ENE) 14:58:26 435.822/435.867
DX 1 01 Jul 14:49:18 14:50:55 12° 299° (WNW) 14:52:33 434.975-435.025
Gurwin Techsat 1B 01 Jul 15:01:53 15:07:00 48° 261° (W) 15:12:09 435.225
TISAT 1 01 Jul 15:24:58 15:28:30 26° 292° (WNW) 15:32:02 437.305
RS-15 01 Jul 15:35:00 15:44:38 27° 342° (NNW) 15:54:37 29.354- 29.394
YUBILEINY 01 Jul 15:37:28 15:42:33 16° 301° (WNW) 15:47:41 435.215
SWISSCUBE 01 Jul 15:49:05 15:53:54 80° 288° (WNW) 15:58:41 437.505
KKS-1 01 Jul 16:09:55 16:13:02 18° 93° (E) 16:16:08 437.445
SO-50 01 Jul 16:10:19 16:15:11 65° 306° (NW) 16:20:03 436.795
BEESAT 01 Jul 16:14:07 16:18:46 50° 289° (WNW) 16:23:22 436.000
ITUPSAT 1 01 Jul 16:17:26 16:22:04 48° 289° (WNW) 16:26:39 437.325
MOZHAYETS 4 01 Jul 16:23:53 16:27:45 25° 94° (E) 16:31:32
AO-7 01 Jul 16:24:04 16:32:21 67° 255° (WSW) 16:40:43 29.400- 29.500
ITAMSAT 1 01 Jul 16:29:13 16:33:06 21° 267° (W) 16:37:01 435.822/435.867
Cosmos 2504 01 Jul 16:32:48 16:38:49 21° 298° (WNW) 16:45:06 435.465 / 435.565
HORYU 2 01 Jul 16:33:06 16:36:57 30° 68° (ENE) 16:40:50 437.375
STARS 01 Jul 16:33:09 16:35:56 16° 92° (E) 16:38:42 437.465
AIST 1 01 Jul 17:15:39 17:19:56 72° 96° (E) 17:24:14
Cosmos 2499 01 Jul 17:16:06 17:18:58 12° 72° (ENE) 17:21:52 435.465 / 435.565
Cubesat XI-IV 01 Jul 17:21:45 17:25:12 18° 61° (ENE) 17:28:40 437.490
LilacSat-2 01 Jul 17:36:10 17:38:06 14° 65° (ENE) 17:40:03 437.200
GONETS M04 01 Jul 17:39:17 17:46:24 30° 83° (E) 17:53:31
NOAA 18 01 Jul 17:42:22 17:47:02 30° 65° (ENE) 17:51:46 137.9125
KKS-1 01 Jul 17:45:34 17:49:46 42° 289° (WNW) 17:53:58 437.445
RS-15 01 Jul 17:52:44 18:02:39 27° 18° (NNE) 18:12:40 29.354- 29.394
CUTE-I 01 Jul 17:53:26 17:58:09 33° 67° (ENE) 18:02:53 437.470
SO-50 01 Jul 17:54:16 17:56:36 13° 326° (NW) 17:58:56 436.795
CUBESAT XI-V 01 Jul 18:00:29 18:04:34 30° 96° (E) 18:08:37 437.345
MOZHAYETS 4 01 Jul 18:00:46 18:04:55 33° 291° (WNW) 18:09:02
CUSAT 1 01 Jul 18:06:16 18:08:57 21° 69° (ENE) 18:11:15 437.405
STARS 01 Jul 18:08:18 18:12:32 47° 288° (WNW) 18:16:45 437.465
HORYU 2 01 Jul 18:09:47 18:13:29 26° 264° (W) 18:17:14 437.375
NOAA 15 01 Jul 18:09:49 18:15:02 62° 72° (ENE) 18:20:15 137.62
HO-68 01 Jul 18:10:46 18:12:44 11° 47° (NE) 18:14:43 435.675
BRITE-PL 01 Jul 18:14:03 18:18:55 62° 75° (ENE) 18:23:26 437.365/2234.400
AO-7 01 Jul 18:24:01 18:26:36 12° 274° (W) 18:29:13 29.400- 29.500
GOMX 1 01 Jul 18:30:41 18:34:52 39° 72° (ENE) 18:38:52 467.674
AIST 1 01 Jul 18:57:37 18:58:04 10° 293° (WNW) 18:58:31
Cubesat XI-IV 01 Jul 18:59:23 19:04:42 67° 258° (WSW) 19:10:05 437.490
DANDE 01 Jul 19:00:14 19:04:37 41° 72° (ENE) 19:07:58 436.750
Cosmos 2499 01 Jul 19:01:55 19:10:12 66° 92° (E) 19:18:57 435.465 / 435.565
LilacSat-2 01 Jul 19:08:24 19:12:01 44° 261° (W) 19:15:42 437.200
STRAND 1 01 Jul 19:09:10 19:10:29 11° 88° (E) 19:11:48 437.568
DOVE 4 01 Jul 19:13:26 19:17:32 49° 73° (ENE) 19:21:34 437.250
NOAA 18 01 Jul 19:22:30 19:27:33 38° 262° (W) 19:32:41 137.9125
CUTE-I 01 Jul 19:33:20 19:38:07 33° 263° (W) 19:42:58 437.470
GONETS M04 01 Jul 19:34:03 19:42:37 61° 282° (WNW) 19:51:13
CUBESAT XI-V 01 Jul 19:37:58 19:41:51 27° 292° (WNW) 19:45:42 437.345
CANX-2 01 Jul 19:38:32 19:42:09 27° 69° (ENE) 19:45:47 2200.000
CINEMA 3 01 Jul 19:43:58 19:47:35 30° 69° (ENE) 19:51:14 145.822/145.860
CUSAT 1 01 Jul 19:49:28 19:50:36 11° 276° (W) 19:51:40 437.405
NOAA 15 01 Jul 19:51:53 19:55:12 17° 269° (W) 19:58:33 137.62
HO-68 01 Jul 19:51:59 19:58:54 55° 67° (ENE) 20:05:53 435.675
BRITE-PL 01 Jul 19:55:13 19:57:42 14° 268° (W) 20:00:06 437.365/2234.400
SEEDS 01 Jul 19:55:25 19:58:57 26° 68° (ENE) 20:02:30 437.485
CUTE 1.7 + AOD 2 01 Jul 19:57:26 20:01:23 37° 71° (ENE) 20:05:22 437.475
AO-85 01 Jul 20:03:11 20:06:34 17° 108° (ESE) 20:09:54 145.980
RS-15 01 Jul 20:06:19 20:18:31 60° 48° (NE) 20:30:37 29.354- 29.394
GOMX 1 01 Jul 20:09:57 20:13:06 19° 266° (W) 20:16:09 467.674
AAUSAT CUBESAT 2 01 Jul 20:24:14 20:27:53 30° 70° (ENE) 20:31:34 437.432
M-CUBED/EXP-1 PRIME 01 Jul 20:24:57 20:27:18 19° 62° (ENE) 20:29:42 437.505
DANDE 01 Jul 20:45:04 20:46:33 12° 281° (W) 20:47:56 436.750
STRAND 1 01 Jul 20:45:08 20:50:19 87° 286° (WNW) 20:55:28 437.568
CUBEBUG 2 01 Jul 20:53:22 20:57:26 52° 73° (ENE) 21:01:38 437.445
DOVE 4 01 Jul 20:53:26 20:55:33 13° 269° (W) 20:57:38 437.250
Cosmos 2499 01 Jul 20:56:53 21:04:02 29° 294° (WNW) 21:11:29 435.465 / 435.565
COMPASS 1 01 Jul 21:01:15 21:05:29 83° 260° (W) 21:09:43 437.405
ZACube-1 01 Jul 21:04:20 21:08:04 31° 69° (ENE) 21:11:55 437.345
PRISM 01 Jul 21:05:36 21:08:49 22° 95° (E) 21:12:00 437.425
Oscar 11 01 Jul 21:07:00 21:10:58 36° 71° (ENE) 21:14:59 145.826/435.025
CANX-2 01 Jul 21:14:18 21:17:56 27° 265° (W) 21:21:36 2200.000
AUBIESAT-1 01 Jul 21:15:47 21:19:02 71° 71° (ENE) 21:22:24 437.475
FUNcube-1 01 Jul 21:19:35 21:23:35 43° 72° (ENE) 21:27:42 145.935
CINEMA 3 01 Jul 21:21:31 21:24:46 22° 266° (W) 21:28:02 145.822/145.860
SEEDS 01 Jul 21:30:55 21:34:34 27° 265° (W) 21:38:15 437.485
UWE-3 01 Jul 21:33:00 21:37:12 82° 257° (WSW) 21:41:34 435.000/436.395/437.385
CUTE 1.7 + AOD 2 01 Jul 21:34:16 21:37:21 19° 267° (W) 21:40:27 437.475
GONETS M04 01 Jul 21:38:42 21:41:34 12° 306° (NW) 21:44:28
HO-68 01 Jul 21:40:54 21:46:56 29° 265° (W) 21:53:01 435.675
DELFI C3 01 Jul 21:40:57 21:44:40 37° 71° (ENE) 21:48:24 145.870
AO-85 01 Jul 21:41:08 21:46:33 74° 304° (NW) 21:51:47 145.980
HUMSAT D 01 Jul 21:46:37 21:49:50 22° 67° (ENE) 21:53:04 437.325/437.525
YUBILEINY 01 Jul 21:52:48 21:54:35 11° 52° (NE) 21:56:22 435.215
M-CUBED/EXP-1 PRIME 01 Jul 21:59:10 22:01:47 22° 259° (WSW) 22:04:26 437.505
AAUSAT CUBESAT 2 01 Jul 22:00:01 22:03:22 23° 266° (W) 22:06:45 437.432
RS-15 01 Jul 22:19:21 22:30:45 46° 251° (WSW) 22:42:01 29.354- 29.394
STRAND 1 01 Jul 22:26:47 22:28:41 12° 302° (WNW) 22:30:36 437.568
CUBEBUG 2 01 Jul 22:32:24 22:34:26 13° 270° (W) 22:36:30 437.445
ESTCUBE 1 01 Jul 22:36:23 22:39:03 16° 63° (ENE) 22:41:43 437.505/2401.250
PRISM 01 Jul 22:40:35 22:44:08 29° 291° (WNW) 22:47:39 437.425
ZACube-1 01 Jul 22:41:03 22:44:24 23° 266° (W) 22:47:51 437.345
Oscar 11 01 Jul 22:44:00 22:47:13 20° 267° (W) 22:50:28 145.826/435.025
TIGRISAT 01 Jul 22:52:59 22:56:52 25° 95° (E) 23:00:45 435.000
FUNcube-1 01 Jul 22:57:20 23:00:04 17° 269° (W) 23:02:50 145.935
UNISAT 6 01 Jul 22:59:10 23:03:20 31° 96° (E) 23:07:30 437.425
50 SAT 01 Jul 22:59:31 23:01:30 14° 65° (ENE) 23:03:30 437.505
SO-50 01 Jul 23:01:55 23:05:22 20° 40° (NE) 23:08:43 436.795
CUBEBUG 1 01 Jul 23:02:13 23:05:12 18° 65° (ENE) 23:08:10 437.445
Cosmos 2491 01 Jul 23:05:55 23:09:44 14° 74° (ENE) 23:13:33 435.465 / 435.565
DELFI C3 01 Jul 23:16:58 23:19:39 17° 267° (W) 23:22:22 145.870
VELOX 1 01 Jul 23:19:18 23:22:56 26° 67° (ENE) 23:26:34 145.980
HUMSAT D 01 Jul 23:21:27 23:25:14 33° 263° (W) 23:29:07 437.325/437.525
AO-85 01 Jul 23:24:42 23:27:53 16° 323° (NW) 23:30:59 145.980
SPROUT 01 Jul 23:35:49 23:38:29 16° 65° (ENE) 23:41:10 437.525
ANTELSAT 01 Jul 23:38:29 23:43:11 79° 102° (ESE) 23:47:54 437.575/2403.000
UKube-1 01 Jul 23:40:25 23:44:01 27° 67° (ENE) 23:47:39 .
YUBILEINY 01 Jul 23:45:06 23:53:46 55° 76° (ENE) 00:02:22 435.215
AISAT 01 Jul 23:59:43 00:04:06 73° 75° (ENE) 00:08:29 437.250
NANOSAT C BR1 02 Jul 00:00:51 00:04:07 21° 94° (E) 00:07:22 145.865
QB50P1 02 Jul 00:05:49 00:09:22 25° 95° (E) 00:12:54 145.935-145.965
DX 1 02 Jul 00:06:35 00:10:51 64° 74° (ENE) 00:15:10 434.975-435.025
POPSAT HIP 1 02 Jul 00:09:19 00:12:58 27° 96° (E) 00:16:36 437.405
ESTCUBE 1 02 Jul 00:10:55 00:15:23 57° 259° (W) 00:19:52 437.505/2401.250
DUCHIFAT 1 02 Jul 00:19:10 00:22:58 31° 97° (E) 00:26:45 145.980
QB50P2 02 Jul 00:22:20 00:26:23 40° 98° (E) 00:30:25 145.880/145.840
POLYITAN 1 02 Jul 00:24:57 00:29:02 41° 98° (E) 00:33:05 437.675
Cosmos 2504 02 Jul 00:28:37 00:36:35 35° 70° (ENE) 00:44:11 435.465 / 435.565
TIGRISAT 02 Jul 00:29:22 00:33:34 34° 291° (WNW) 00:37:47 435.000
50 SAT 02 Jul 00:31:17 00:34:49 41° 261° (W) 00:38:23 437.505
UNISAT 6 02 Jul 00:35:59 00:39:57 28° 292° (WNW) 00:43:56 437.425
CUBEBUG 1 02 Jul 00:37:02 00:41:10 42° 261° (W) 00:45:19 437.445
PCSat 02 Jul 00:40:41 00:43:38 15° 104° (ESE) 00:46:35 145.827
SO-50 02 Jul 00:41:40 00:46:18 64° 240° (WSW) 00:50:45 436.795
TISAT 1 02 Jul 00:41:44 00:44:55 22° 67° (ENE) 00:48:06 437.305
VELOX 1 02 Jul 00:55:25 00:59:17 30° 263° (W) 01:03:11 145.980
Cosmos 2491 02 Jul 00:56:13 01:04:56 74° 94° (E) 01:13:39 435.465 / 435.565
BUGSAT 1 02 Jul 00:59:22 01:03:14 39° 99° (E) 01:07:08 437.445
SPROUT 02 Jul 01:10:00 01:14:04 46° 261° (W) 01:18:11 437.525
UKube-1 02 Jul 01:16:18 01:19:59 27° 264° (W) 01:23:42 .
ANTELSAT 02 Jul 01:17:20 01:19:15 12° 299° (WNW) 01:21:09 437.575/2403.000
SWISSCUBE 02 Jul 01:20:35 01:23:15 15° 61° (ENE) 01:25:55 437.505
NANOSAT C BR1 02 Jul 01:36:04 01:39:54 33° 290° (WNW) 01:43:44 145.865
AISAT 02 Jul 01:40:22 01:41:03 10° 271° (W) 01:41:44 437.250
QB50P1 02 Jul 01:41:27 01:45:06 28° 291° (WNW) 01:48:46 145.935-145.965
YUBILEINY 02 Jul 01:42:33 01:50:06 33° 276° (W) 01:57:40 435.215
JAS-2 02 Jul 01:44:03 01:49:29 56° 100° (E) 01:54:34 435.910
BEESAT 02 Jul 01:44:12 01:47:53 22° 65° (ENE) 01:51:35 436.000
POPSAT HIP 1 02 Jul 01:45:06 01:48:41 27° 292° (WNW) 01:52:17 437.405
DX 1 02 Jul 01:45:57 01:47:28 12° 270° (W) 01:48:59 434.975-435.025
ITUPSAT 1 02 Jul 01:47:40 01:51:28 24° 65° (ENE) 01:55:17 437.325
DUCHIFAT 1 02 Jul 01:55:09 01:58:30 23° 293° (WNW) 02:01:52 145.980
QB50P2 02 Jul 01:58:55 02:01:54 19° 295° (WNW) 02:04:53 145.880/145.840
POLYITAN 1 02 Jul 02:01:34 02:04:32 18° 295° (WNW) 02:07:29 437.675
BEESAT 3 02 Jul 02:02:36 02:06:24 51° 118° (ESE) 02:10:15 437.485
TISAT 1 02 Jul 02:16:39 02:20:23 32° 263° (W) 02:24:09 437.305
PCSat 02 Jul 02:20:56 02:26:21 76° 301° (WNW) 02:31:48 145.827
Cosmos 2504 02 Jul 02:21:47 02:30:18 54° 271° (W) 02:38:25 435.465 / 435.565
Oscar 19 02 Jul 02:29:44 02:34:47 54° 101° (E) 02:39:47 437.125/150
O/OREOS (USA 219) 02 Jul 02:31:28 02:35:54 64° 109° (ESE) 02:40:21 437.305
BUGSAT 1 02 Jul 02:35:30 02:38:20 18° 294° (WNW) 02:41:11 437.445
BEESAT 2 02 Jul 02:47:58 02:51:55 89° 122° (ESE) 02:55:56 435.950
SWISSCUBE 02 Jul 02:55:43 03:00:29 67° 258° (WSW) 03:05:17 437.505
Cosmos 2491 02 Jul 02:55:49 03:02:39 25° 295° (WNW) 03:09:32 435.465 / 435.565
ITAMSAT 1 02 Jul 03:01:58 03:05:15 17° 91° (E) 03:08:31 435.822/435.867
KKS-1 02 Jul 03:08:40 03:11:44 19° 64° (ENE) 03:14:48 437.445
Gurwin Techsat 1B 02 Jul 03:17:21 03:22:40 66° 102° (ESE) 03:27:57 435.225
BEESAT 02 Jul 03:20:53 03:25:24 41° 261° (W) 03:29:57 436.000
AIST 1 02 Jul 03:23:03 03:26:01 18° 71° (ENE) 03:28:59
ITUPSAT 1 02 Jul 03:24:35 03:29:04 39° 262° (W) 03:33:36 437.325
MOZHAYETS 4 02 Jul 03:26:10 03:29:58 26° 67° (ENE) 03:33:49
JAS-2 02 Jul 03:30:17 03:34:04 19° 300° (WNW) 03:37:41 435.910
STARS 02 Jul 03:30:39 03:33:18 16° 63° (ENE) 03:35:59 437.465
BEESAT 3 02 Jul 03:41:40 03:44:23 18° 317° (NW) 03:47:06 437.485
GONETS M04 02 Jul 03:49:10 03:53:37 15° 57° (ENE) 03:58:03
AIST 2 02 Jul 04:02:59 04:06:32 29° 114° (ESE) 04:10:07 435.215
PCSat 02 Jul 04:07:35 04:10:41 15° 321° (NW) 04:13:47 145.827
Oscar 19 02 Jul 04:10:03 04:13:41 20° 297° (WNW) 04:17:18 437.125/150
O/OREOS (USA 219) 02 Jul 04:13:11 04:15:46 15° 308° (NW) 04:18:21 437.305
AO-7 02 Jul 04:25:20 04:33:10 42° 99° (E) 04:40:56 29.400- 29.500
BEESAT 2 02 Jul 04:28:36 04:30:22 12° 321° (NW) 04:32:07 435.950
AO-85 02 Jul 04:33:49 04:36:47 17° 38° (NE) 04:39:37 145.980
ITAMSAT 1 02 Jul 04:39:58 04:45:08 62° 288° (WNW) 04:50:16 435.822/435.867
KKS-1 02 Jul 04:43:46 04:47:59 43° 261° (W) 04:52:13 437.445
Cosmos 2499 02 Jul 04:53:48 05:00:46 26° 65° (ENE) 05:07:22 435.465 / 435.565
Gurwin Techsat 1B 02 Jul 04:58:38 05:02:04 18° 299° (WNW) 05:05:29 435.225
AIST 1 02 Jul 04:59:50 05:03:45 36° 268° (W) 05:07:40
MOZHAYETS 4 02 Jul 05:02:50 05:06:59 33° 264° (W) 05:11:12
CUBESAT XI-V 02 Jul 05:04:01 05:08:10 32° 69° (ENE) 05:12:20 437.345
STARS 02 Jul 05:05:02 05:09:15 50° 260° (W) 05:13:31 437.465
PHONESAT 2.4 02 Jul 05:33:40 05:36:04 21° 155° (SSE) 05:38:28 2401.200-2431.200
AIST 2 02 Jul 05:41:21 05:44:58 29° 312° (NW) 05:48:37 435.215
GONETS M04 02 Jul 05:43:29 05:52:14 71° 80° (E) 06:00:58
HORYU 2 02 Jul 05:59:16 06:03:43 56° 101° (E) 06:08:08 437.375
NOAA 18 02 Jul 06:06:09 06:07:38 11° 88° (E) 06:09:08 137.9125
CUTE-I 02 Jul 06:12:02 06:13:52 12° 88° (E) 06:15:43 437.470
AO-85 02 Jul 06:13:22 06:17:53 74° 238° (WSW) 06:21:58 145.980
AO-7 02 Jul 06:18:06 06:25:59 47° 298° (WNW) 06:33:48 29.400- 29.500
BRITE-PL 02 Jul 06:19:17 06:21:51 16° 92° (E) 06:24:27 437.365/2234.400
STRAND 1 02 Jul 06:24:18 06:27:47 19° 62° (ENE) 06:31:17 437.568
NOAA 15 02 Jul 06:25:17 06:29:19 22° 93° (E) 06:33:19 137.62
DANDE 02 Jul 06:26:52 06:30:16 13° 81° (E) 06:33:32 436.750
CUBESAT XI-V 02 Jul 06:41:35 06:45:33 27° 265° (W) 06:49:31 437.345
LilacSat-2 02 Jul 06:41:55 06:44:41 18° 93° (E) 06:47:26 437.200
Cosmos 2499 02 Jul 06:46:05 06:54:48 73° 266° (W) 07:02:53 435.465 / 435.565
CUSAT 1 02 Jul 07:05:04 07:12:12 47° 94° (E) 07:18:05 437.405
PHONESAT 2.4 02 Jul 07:09:20 07:12:21 56° 172° (S) 07:15:22 2401.200-2431.200
DOVE 4 02 Jul 07:12:36 07:14:46 13° 91° (E) 07:16:56 437.250
ISS 02 Jul 07:14:24 07:17:03 23° 135° (SE) 07:19:43 145.825
Cubesat XI-IV 02 Jul 07:16:14 07:21:27 47° 99° (E) 07:26:37 437.490
HORYU 2 02 Jul 07:37:08 07:39:49 16° 297° (WNW) 07:42:29 437.375
